Location: Newark
(27.9675°N, 86.8869°E)
Time: 16:34:34
(UTC+00:00)

Altair - Pass Details

Date: 23 October 2019
Orbit: 1502 x 1682 km, 47.2° (Epoch: 20 November)

Event Time Altitude Azimuth Distance (km) Brightness Sun altitude
Rises 13:37:51 0° 292° (WNW) 4,915 11.2 -27.5°
Reaches altitude 10° 13:42:18 10° 276° (W) 3,936 10.6 -28.5°
Maximum altitude 13:48:35 19° 236° (WSW) 3,295 9.7 -29.9°
Drops below altitude 10° 13:54:54 10° 197° (SSW) 3,922 9.7 -31.3°
Sets 13:59:24 0° 180° (S) 4,890 10.1 -32.3°
